CW5689 Weather Reports


time (UTC)temp
F
wind
direction
speed
knots
gust
knots
rain 1hr
in
rain 24hr
in
rain mn
in
humidity
%
barometer
mb
20260503014018 62 197 2.6 7.8 0.00 0.00 0.00 41 1010.1
20260503013520 62 237 2.6 7.8 0.00 0.00 0.00 41 1010.1
20260503013037 62 203 1.7 6.1 0.00 0.00 0.00 41 1010.1
20260503012517 62 159 1.7 5.2 0.00 0.00 0.00 41 1010.2
20260503012020 62 237 2.6 4.3 0.00 0.00 0.00 42 1010.1
20260503011536 63 216 1.7 4.3 0.00 0.00 0.00 41 1010.2
20260503011016 63 218 1.7 4.3 0.00 0.00 0.00 40 1010.2
20260503010516 63 0 0.9 7.0 0.00 0.00 0.00 40 1010.3
20260503010035 63 222 0.9 7.0 0.00 0.00 0.00 40 1010.3
20260503005518 63 246 2.6 7.0 0.00 0.00 0.00 39 1010.5
20260503005020 64 288 2.6 13.9 0.00 0.00 0.00 38 1010.6
20260503004533 64 234 5.2 14.8 0.00 0.00 0.00 39 1010.6
20260503004017 64 212 4.3 14.8 0.00 0.00 0.00 36 1010.7
20260503003516 64 247 2.6 7.8 0.00 0.00 0.00 38 1010.6
20260503003035 64 261 2.6 7.8 0.00 0.00 0.00 35 1010.4
20260503002520 64 238 2.6 7.0 0.00 0.00 0.00 36 1010.3
20260503002017 64 199 1.7 4.3 0.00 0.00 0.00 35 1010.4
20260503001534 64 228 0.9 5.2 0.00 0.00 0.00 35 1010.4
20260503001017 64 0 0.9 5.2 0.00 0.00 0.00 36 1010.4
20260503000516 64 186 0.0 7.0 0.00 0.00 0.00 37 1010.6
20260503000044 65 227 2.6 7.0 0.00 0.00 0.00 37 1010.6
20260502235513 65 210 1.7 5.2 0.00 0.00 0.00 37 1010.7
20260502235016 65 0 0.9 7.0 0.00 0.00 0.00 35 1010.8
20260502234534 65 267 0.9 16.5 0.00 0.00 0.00 35 1010.8
20260502234017 65 232 4.3 16.5 0.00 0.00 0.00 35 1010.8
20260502233520 65 220 5.2 9.6 0.00 0.00 0.00 34 1010.8
20260502233033 65 275 1.7 7.0 0.00 0.00 0.00 35 1011.0
20260502232518 65 0 1.7 7.0 0.00 0.00 0.00 34 1011.0
20260502232018 65 305 3.5 13.0 0.00 0.00 0.00 36 1011.1
20260502231542 65 253 4.3 13.0 0.00 0.00 0.00 33 1011.1
20260502231019 65 271 1.7 7.0 0.00 0.00 0.00 33 1011.2
20260502230519 65 0 2.6 7.0 0.00 0.00 0.00 33 1011.3
20260502230031 65 207 2.6 12.2 0.00 0.00 0.00 34 1011.2
20260502225518 65 230 3.5 12.2 0.00 0.00 0.00 34 1011.1
20260502225019 65 211 1.7 9.6 0.00 0.00 0.00 33 1011.1
20260502224535 65 262 3.5 9.6 0.00 0.00 0.00 33 1011.2
20260502224018 65 249 3.5 9.6 0.00 0.00 0.00 32 1011.3
20260502223520 65 241 1.7 10.4 0.00 0.00 0.00 34 1011.3
20260502223033 65 194 4.3 10.4 0.00 0.00 0.00 32 1011.4
20260502222518 65 232 5.2 9.6 0.00 0.00 0.00 34 1011.4
20260502222021 65 238 4.3 11.3 0.00 0.00 0.00 33 1011.6
20260502221536 65 238 4.3 11.3 0.00 0.00 0.00 34 1011.5
20260502221019 65 206 4.3 9.6 0.00 0.00 0.00 35 1011.5
20260502220516 65 249 4.3 10.4 0.00 0.00 0.00 34 1011.6
20260502220043 65 250 5.2 10.4 0.00 0.00 0.00 33 1011.7
20260502215517 65 244 3.5 8.7 0.00 0.00 0.00 33 1011.7
20260502215018 65 215 2.6 8.7 0.00 0.00 0.00 33 1011.8
20260502214531 65 241 2.6 13.0 0.00 0.00 0.00 33 1012.0
20260502214022 65 234 4.3 13.0 0.00 0.00 0.00 33 1012.0
20260502213518 65 263 5.2 13.0 0.00 0.00 0.00 33 1012.1
20260502213032 65 0 3.5 9.6 0.00 0.00 0.00 33 1012.0
20260502212612 65 253 1.7 9.6 0.00 0.00 0.00 31 1012.2
20260502212518 65 253 1.7 9.6 0.00 0.00 0.00 31 1012.2
20260502212019 65 266 4.3 13.0 0.00 0.00 0.00 31 1012.3
20260502211536 65 3 2.6 15.6 0.00 0.00 0.00 32 1012.3
20260502211018 65 261 7.0 15.6 0.00 0.00 0.00 31 1012.4
20260502210517 65 155 7.8 15.6 0.00 0.00 0.00 33 1012.5
20260502210035 65 212 5.2 12.2 0.00 0.00 0.00 33 1012.6
20260502205517 65 260 7.0 12.2 0.00 0.00 0.00 32 1012.8
20260502205018 65 212 5.2 16.5 0.00 0.00 0.00 34 1012.9
20260502204532 65 251 8.7 16.5 0.00 0.00 0.00 33 1013.1
20260502204019 64 195 8.7 14.8 0.00 0.00 0.00 32 1013.2
20260502203519 64 270 5.2 14.8 0.00 0.00 0.00 34 1013.1
20260502203032 64 256 7.0 14.8 0.00 0.00 0.00 32 1013.4
20260502202518 64 260 3.5 10.4 0.00 0.00 0.00 37 1013.4
20260502202018 63 194 3.5 13.0 0.00 0.00 0.00 37 1013.5
20260502201537 63 267 6.1 14.8 0.00 0.00 0.00 35 1013.5
20260502201021 64 253 7.8 14.8 0.00 0.00 0.00 37 1013.7
20260502200519 64 197 3.5 14.8 0.00 0.00 0.00 31 1013.6
20260502200036 64 211 4.3 14.8 0.00 0.00 0.00 34 1013.8
20260502195518 64 258 3.5 13.9 0.00 0.00 0.00 34 1013.9
20260502195017 63 245 4.3 13.0 0.00 0.00 0.00 32 1013.9
20260502194534 63 215 5.2 13.0 0.00 0.00 0.00 33 1014.1
20260502194018 63 289 2.6 13.0 0.00 0.00 0.00 34 1014.2
20260502193521 63 247 7.0 13.0 0.00 0.00 0.00 33 1014.3
20260502193032 63 290 3.5 13.0 0.00 0.00 0.00 31 1014.2
20260502192518 63 244 6.1 16.5 0.00 0.00 0.00 33 1014.3
20260502192017 63 211 6.1 16.5 0.00 0.00 0.00 33 1014.5
20260502191535 63 236 2.6 9.6 0.00 0.00 0.00 35 1014.5
20260502191021 63 305 1.7 12.2 0.00 0.00 0.00 29 1014.6
20260502190518 64 216 4.3 12.2 0.00 0.00 0.00 33 1014.8
20260502190035 64 255 6.1 10.4 0.00 0.00 0.00 33 1014.8
20260502185517 64 197 1.7 11.3 0.00 0.00 0.00 31 1015.0
20260502185018 64 230 3.5 12.2 0.00 0.00 0.00 34 1015.0
20260502184535 63 220 6.1 12.2 0.00 0.00 0.00 31 1015.1
20260502184018 64 268 5.2 11.3 0.00 0.00 0.00 30 1015.2
20260502183518 63 284 4.3 9.6 0.00 0.00 0.00 32 1015.3
20260502183034 63 214 1.7 11.3 0.00 0.00 0.00 32 1015.3
20260502182515 63 216 5.2 11.3 0.00 0.00 0.00 33 1015.5
20260502182017 63 269 7.0 11.3 0.00 0.00 0.00 31 1015.6
20260502181532 62 280 4.3 11.3 0.00 0.00 0.00 34 1015.7
20260502181017 62 258 2.6 12.2 0.00 0.00 0.00 35 1015.7
20260502180517 62 217 4.3 13.0 0.00 0.00 0.00 36 1015.8
20260502164015 59 189 5.2 13.0 0.00 0.00 0.00 36 1016.9
20260502163515 58 213 6.1 13.0 0.00 0.00 0.00 37 1017.0
20260502163041 58 209 3.5 12.2 0.00 0.00 0.00 37 1017.1
20260502162515 58 355 3.5 12.2 0.00 0.00 0.00 32 1017.2
20260502162015 59 289 6.1 12.2 0.00 0.00 0.00 36 1017.3
20260502161555 58 232 4.3 9.6 0.00 0.00 0.00 36 1017.4
20260502161026 58 248 4.3 10.4 0.00 0.00 0.00 38 1017.3
20260502160514 58 195 3.5 11.3 0.00 0.00 0.00 35 1017.4
20260502152017 56 215 5.2 10.4 0.00 0.00 0.00 36 1017.8
20260502151532 56 286 2.6 11.3 0.00 0.00 0.00 41 1017.8
20260502151017 56 288 4.3 11.3 0.00 0.00 0.00 39 1017.8
20260502150518 56 272 3.5 9.6 0.00 0.00 0.00 38 1017.8
20260502130519 44 0 1.7 2.6 0.00 0.00 0.00 68 1018.3
20260502123517 39 0 0.0 2.6 0.00 0.00 0.00 81 1018.3
20260502123107 38 0 0.0 2.6 0.00 0.00 0.00 82 1018.3
20260502122517 37 207 0.9 2.6 0.00 0.00 0.00 83 1018.3
20260502122024 37 0 0.0 0.0 0.00 0.00 0.00 84 1018.3
20260502121532 36 0 0.0 0.0 0.00 0.00 0.00 85 1018.3
20260502121018 36 0 0.0 0.0 0.00 0.00 0.00 85 1018.3
20260502120519 35 0 0.0 0.0 0.00 0.00 0.00 86 1018.4
20260502115520 34 0 0.0 5.2 0.00 0.00 0.00 88 1018.3
20260502115018 33 207 0.9 5.2 0.00 0.00 0.00 87 1018.3
20260502114536 33 205 2.6 5.2 0.00 0.00 0.00 87 1018.2
20260502114018 33 210 1.7 4.3 0.00 0.00 0.00 87 1018.2
20260502113517 33 217 2.6 4.3 0.00 0.00 0.00 87 1018.2
20260502113051 32 271 2.6 3.5 0.00 0.00 0.00 88 1018.2
20260502112516 32 0 0.0 0.0 0.00 0.00 0.00 88 1018.3
20260502112019 32 0 0.0 0.0 0.00 0.00 0.00 88 1018.3
20260502111533 32 0 0.0 0.0 0.00 0.00 0.00 87 1018.2
20260502111018 32 0 0.0 0.0 0.00 0.00 0.00 87 1018.2
20260502110521 32 0 0.0 0.0 0.00 0.00 0.00 86 1018.2
20260502110044 32 0 0.0 0.0 0.00 0.00 0.00 86 1018.3
20260502105518 32 0 0.0 0.0 0.00 0.00 0.00 86 1018.3
20260502105018 32 0 0.0 0.0 0.00 0.00 0.00 87 1018.3
20260502104539 32 0 0.0 0.0 0.00 0.00 0.00 87 1018.3
20260502104018 32 0 0.0 0.0 0.00 0.00 0.00 87 1018.2
20260502103517 32 0 0.0 0.0 0.00 0.00 0.00 87 1018.2
20260502103035 32 0 0.0 0.0 0.00 0.00 0.00 86 1018.2
20260502102518 32 0 0.0 0.0 0.00 0.00 0.00 86 1018.1
20260502102030 32 0 0.0 0.0 0.00 0.00 0.00 86 1018.1
20260502101535 32 0 0.0 0.0 0.00 0.00 0.00 86 1018.1
20260502101020 32 0 0.0 0.0 0.00 0.00 0.00 86 1018.1
20260502100517 32 0 0.0 0.0 0.00 0.00 0.00 86 1018.1
20260502091018 33 0 0.0 0.0 0.00 0.00 0.00 84 1017.9
20260502090518 33 0 0.0 0.0 0.00 0.00 0.00 83 1017.8
20260502071535 34 325 1.7 3.5 0.00 0.00 0.00 79 1018.0
20260502071021 34 325 0.9 3.5 0.00 0.00 0.00 79 1018.1
20260502070521 34 325 1.7 2.6 0.00 0.00 0.00 79 1018.0
20260502070035 34 325 1.7 2.6 0.00 0.00 0.00 79 1018.1
20260502065518 34 325 0.9 2.6 0.00 0.00 0.00 78 1018.1
20260502065019 34 325 1.7 2.6 0.00 0.00 0.00 78 1018.1
20260502064535 35 325 1.7 2.6 0.00 0.00 0.00 77 1018.2
20260502064017 35 325 0.9 2.6 0.00 0.00 0.00 77 1018.2
20260502063518 35 325 1.7 2.6 0.00 0.00 0.00 77 1018.3
20260502063051 35 325 0.9 2.6 0.00 0.00 0.00 77 1018.3
20260502062517 35 325 1.7 2.6 0.00 0.00 0.00 76 1018.3
20260502062017 35 325 1.7 2.6 0.00 0.00 0.00 76 1018.3
20260502061535 35 325 1.7 2.6 0.00 0.00 0.00 75 1018.3
20260502061017 35 325 1.7 2.6 0.00 0.00 0.00 75 1018.3
20260502060518 36 325 1.7 2.6 0.00 0.00 0.00 75 1018.3
20260502060034 36 325 1.7 2.6 0.00 0.00 0.00 74 1018.3
20260502055517 36 325 1.7 2.6 0.00 0.00 0.00 74 1018.3
20260502055017 36 325 0.9 2.6 0.00 0.00 0.00 74 1018.4
20260502054534 36 325 0.9 2.6 0.00 0.00 0.00 73 1018.3
20260502054017 36 325 1.7 3.5 0.00 0.00 0.00 73 1018.3
20260502053517 37 325 1.7 3.5 0.00 0.00 0.00 72 1018.4
20260502053038 37 325 1.7 3.5 0.00 0.00 0.00 72 1018.4
20260502052517 37 325 1.7 3.5 0.00 0.00 0.00 72 1018.3
20260502052019 37 326 1.7 3.5 0.00 0.00 0.00 71 1018.3
20260502051538 37 327 1.7 3.5 0.00 0.00 0.00 71 1018.4
20260502051017 37 328 1.7 3.5 0.00 0.00 0.00 71 1018.4
20260502050517 37 328 1.7 3.5 0.00 0.00 0.00 70 1018.3
20260502050039 38 330 1.7 2.6 0.00 0.00 0.00 70 1018.3
20260502045517 38 330 0.9 2.6 0.00 0.00 0.00 70 1018.3
20260502045017 38 330 0.9 2.6 0.00 0.00 0.00 69 1018.3
20260502044536 38 330 0.9 2.6 0.00 0.00 0.00 69 1018.2
20260502044016 38 330 1.7 3.5 0.00 0.00 0.00 69 1018.2
20260502043516 39 330 0.9 3.5 0.00 0.00 0.00 69 1018.2
20260502043035 39 330 1.7 3.5 0.00 0.00 0.00 67 1018.3
20260502042518 39 330 0.9 2.6 0.00 0.00 0.00 67 1018.3
20260502042018 39 330 1.7 2.6 0.00 0.00 0.00 67 1018.3
20260502041532 40 330 1.7 3.5 0.00 0.00 0.00 66 1018.3
20260502041017 40 331 0.9 3.5 0.00 0.00 0.00 65 1018.3
20260502040517 40 331 1.7 2.6 0.00 0.00 0.00 66 1018.3
20260502040035 40 332 1.7 2.6 0.00 0.00 0.00 65 1018.3
20260502035516 41 332 1.7 2.6 0.00 0.00 0.00 64 1018.3
20260502035017 41 332 1.7 2.6 0.00 0.00 0.00 64 1018.4
20260502034533 41 0 0.0 1.7 0.00 0.00 0.00 63 1018.4
20260502034017 41 0 0.0 1.7 0.00 0.00 0.00 63 1018.5
20260502033517 41 333 0.9 2.6 0.00 0.00 0.00 62 1018.5
20260502033043 41 333 0.9 2.6 0.00 0.00 0.00 62 1018.5
20260502032517 41 333 0.9 2.6 0.00 0.00 0.00 61 1018.5
20260502032017 41 0 0.0 2.6 0.00 0.00 0.00 62 1018.5
20260502031535 41 0 0.0 2.6 0.00 0.00 0.00 62 1018.5
20260502031017 41 333 0.9 2.6 0.00 0.00 0.00 62 1018.5
20260502030518 41 333 0.9 2.6 0.00 0.00 0.00 62 1018.5
20260502030034 42 333 1.7 2.6 0.00 0.00 0.00 61 1018.5
20260502025517 42 333 1.7 2.6 0.00 0.00 0.00 60 1018.5
20260502025017 42 333 1.7 2.6 0.00 0.00 0.00 60 1018.4
20260502024533 42 333 1.7 3.5 0.00 0.00 0.00 59 1018.3
20260502024017 43 333 1.7 3.5 0.00 0.00 0.00 58 1018.3
20260502023517 43 333 1.7 3.5 0.00 0.00 0.00 58 1018.4
20260502023032 43 334 1.7 3.5 0.00 0.00 0.00 56 1018.4
20260502022517 44 334 1.7 3.5 0.00 0.00 0.00 55 1018.3
20260502022017 44 334 1.7 3.5 0.00 0.00 0.00 55 1018.2
20260502021536 44 337 1.7 3.5 0.00 0.00 0.00 53 1018.3
20260502021017 45 337 2.6 3.5 0.00 0.00 0.00 51 1018.2
20260502020517 45 0 0.0 0.0 0.00 0.00 0.00 50 1018.1
20260502020035 46 0 0.0 0.0 0.00 0.00 0.00 46 1018.1
20260502015517 46 0 0.0 0.0 0.00 0.00 0.00 50 1018.1
20260502015017 47 0 0.0 0.0 0.00 0.00 0.00 48 1018.0
20260502014535 47 0 0.0 0.0 0.00 0.00 0.00 48 1017.9